A/2019 G4

Japanese version
Home page
Updated on July 18, 2021

---------------------------------------------------------------------

* Profile

Discovery Date April 9, 2019
Magnitude 21.4 mag
Discoverer Pan-STARRS 1 telescope (Haleakala)

* Orbital Elements

Epoch 2018 Aug. 30.0 TT = JDT 2458360.5
T 2018 Sept. 15.16310 TT                                Rudenko
q   5.8580231            (2000.0)            P               Q
z  +0.0000607      Peri.  287.83460     -0.74010325     -0.44378048
 +/-0.0000027      Node   130.47574     +0.04147599     +0.71979840
e   0.9996444      Incl.  138.37560     -0.67121302     +0.53380629
H   13.0
From 29 observations 2019 Apr. 9-2020 Nov. 11, mean residual 0".3.

* Magnitudes Graph

        H = 13.0  G = 0.15

---------------------------------------------------------------------

The orbital elements are published on M.P.E.C. 2020-W26.
The magnitudes graphs are made with Comet for Windows.

---------------------------------------------------------------------

Copyright(C) Seiichi Yoshida (comet@aerith.net). All rights reserved.